This demonstration page uses our WeatherBlox Daily Observations layout. Learn more.

Left ArrowRight Arrow

Hourly Observations for April 11, 2022

Temp ( °F °C ) Dew Point ( °F °C ) Humidity (%) Winds ( mph kmh ) Pressure ( in mb ) Visibility ( mi km ) Precip ( " mm )
12:52 am 00:52 Clear 65 18.3 55 12.8 70 70 SE 3 6 29.64 1004 10 16 0.00 0.00
1:41 am 01:41 Mostly Clear with Nearby Thunderstorms 65 18.3 55 12.8 70 70 SSE 9 15 29.65 1004 10 16 0.00 0.00
1:52 am 01:52 Partly Cloudy with Thunderstorms 65 18.3 55 12.8 70 70 SSE 8 13 29.66 1004 10 16 0.00 0.00
2:31 am 02:31 Cloudy with Strong Thunderstorms 53 11.7 48 8.9 83 83 W 10 17 N/A 2 3 0.14 3.56
2:48 am 02:48 Cloudy with Strong Thunderstorms 54 12 52 11 94 94 W 16 26 N/A 2 3 0.34 8.64
2:52 am 02:52 Cloudy with Strong Thunderstorms 55 12.8 51 10.6 87 87 W 12 19 N/A 3 5 0.36 9.14
3:09 am 03:09 Cloudy with Nearby Thunderstorms 55 12.8 52 11.1 90 90 WNW 9 15 N/A 5 8 0.05 1.27
3:29 am 03:29 Cloudy with Rain 55 12.8 53 11.7 93 93 NNW 12 19 N/A 6 10 0.11 2.79
3:52 am 03:52 Cloudy with Light Rain 55 12.8 53 11.7 93 93 N 8 13 N/A 10 16 0.14 3.56
4:52 am 04:52 Cloudy with Light Rain 54 12.2 50 10 87 87 NE 8 13 N/A 9 14 0.03 0.76
5:47 am 05:47 Cloudy with Thunderstorms 54 12 52 11 94 94 E 15 24 N/A 9 14 0.09 2.29
5:52 am 05:52 Cloudy with Thunderstorms 54 12.2 51 10.6 90 90 E 18 30 N/A 9 14 0.10 2.54
6:23 am 06:23 Cloudy with Nearby Thunderstorms 55 12.8 52 11.1 90 90 E 20 31 N/A 7 11 0.03 0.76
6:38 am 06:38 Cloudy with Light Rain 55 12.8 52 11.1 90 90 ENE 14 22 N/A 10 16 0.03 0.76
6:54 am 06:54 Partly Cloudy with Nearby Thunderstorms 55 12.8 53 11.7 93 93 SSW 10 17 29.77 1008 N/A 0.04 1.02
7:09 am 07:09 Partly Cloudy with Rain 54 12.2 52 11.1 93 93 W 16 26 29.81 1010 7 11 0.08 2.03
7:17 am 07:17 Cloudy with Nearby Thunderstorms 54 12.2 52 11.1 93 93 W 12 19 29.82 1010 9 14 0.10 2.54
7:25 am 07:25 Cloudy with Nearby Thunderstorms 54 12.2 52 11.1 93 93 WNW 9 15 29.81 1010 10 16 0.10 2.54
7:36 am 07:36 Cloudy with Light Rain 54 12.2 52 11.1 93 93 W 13 20 29.82 1010 10 16 0.10 2.54
7:52 am 07:52 Cloudy with Light Rain 54 12.2 52 11.1 93 93 W 9 15 29.81 1010 10 16 0.10 2.54
8:03 am 08:03 Cloudy with Light Rain 53 11.7 52 11.1 96 96 WSW 7 11 29.84 1011 8 13 0.00 0.00
8:37 am 08:37 Cloudy with Nearby Thunderstorms 53 11.7 52 11.1 96 96 Calm 29.83 1010 6 10 0.03 0.76
8:44 am 08:44 Cloudy with Thunderstorms 53 11.7 52 11.1 96 96 WNW 5 7 29.85 1011 7 11 0.03 0.76
8:52 am 08:52 Cloudy with Thunderstorms 53 11.7 52 11.1 96 96 Calm 29.81 1009 7 11 0.03 0.76
9:05 am 09:05 Cloudy with Nearby Thunderstorms 53 11.7 52 11.1 96 96 Calm 29.84 1011 4 6 0.00 0.00
9:09 am 09:09 Cloudy with Nearby Thunderstorms 53 11.7 52 11.1 96 96 W 3 6 29.87 1012 3 4 0.01 0.25
9:17 am 09:17 Cloudy with Nearby Thunderstorms 53 11.7 52 11.1 96 96 N 3 6 29.85 1011 1 2 0.06 1.52
9:25 am 09:25 Cloudy with Light Rain 52 11.1 52 11.1 100 100 Calm 29.84 1010 2 3 0.15 3.81
9:33 am 09:33 Cloudy with Nearby Thunderstorms 52 11.1 52 11.1 100 100 N 3 6 29.86 1011 4 6 0.16 4.06
9:41 am 09:41 Cloudy with Thunderstorms 52 11.1 52 11.1 100 100 VRB 3 6 29.88 1012 4 6 0.17 4.32
9:52 am 09:52 Cloudy with Thunderstorms 53 11.7 52 11.1 96 96 E 3 6 29.83 1010 3 5 0.19 4.83
10:02 am 10:02 Cloudy with Nearby Thunderstorms 53 11.7 52 11.1 96 96 ENE 3 6 29.86 1011 5 8 0.01 0.25
10:12 am 10:12 Cloudy with Light Rain 53 11.7 53 11.7 100 100 Calm 29.86 1011 7 11 0.01 0.25
10:52 am 10:52 Cloudy with Light Rain 53 11.7 52 11.1 96 96 NNE 6 9 29.84 1011 7 11 0.01 0.25
11:09 am 11:09 Cloudy 53 11.7 52 11.1 96 96 NNE 6 9 29.86 1011 9 14 0.00 0.00
11:37 am 11:37 Cloudy with Light Rain 54 12.2 53 11.7 97 97 NE 6 9 29.86 1011 10 16 0.00 0.00
11:52 am 11:52 Cloudy with Mist and Fog 54 12.2 52 11.1 93 93 N 8 13 29.85 1011 6 10 0.00 0.00
12:07 pm 12:07 Cloudy with Nearby Thunderstorms 53 11.7 51 10.6 93 93 N 10 17 29.87 1012 6 10 0.00 0.00
12:28 pm 12:28 Cloudy with Rain 52 11.1 51 10.6 97 97 NNE 10 17 29.89 1012 4 6 0.00 0.00
12:41 pm 12:41 Cloudy with Light Rain 51 10.6 50 10 96 96 NNE 12 19 29.88 1012 3 4 0.08 2.03
12:48 pm 12:48 Cloudy with Thunderstorms 52 11 50 10 94 94 NNE 10 17 29.88 1012 5 8 0.10 2.54
12:52 pm 12:52 Cloudy with Thunderstorms 51 10.6 50 10 96 96 NE 12 19 29.85 1011 5 8 0.10 2.54
12:59 pm 12:59 Cloudy with Thunderstorms 51 10.6 50 10 96 96 NNE 9 15 29.87 1011 6 10 0.00 0.00
1:06 pm 13:06 Cloudy with Rain 51 10.6 50 10 96 96 NNE 10 17 29.87 1011 4 6 0.01 0.25
1:16 pm 13:16 Cloudy with Light Rain 51 10.6 50 10 96 96 ENE 12 19 29.85 1011 6 10 0.04 1.02
1:37 pm 13:37 Cloudy with Nearby Thunderstorms 51 10.6 50 10 96 96 NE 10 17 29.85 1011 6 10 0.05 1.27
1:49 pm 13:49 Cloudy with Thunderstorms 52 11 52 11 100 100 N 9 15 29.87 1011 6 10 0.06 1.52
1:52 pm 13:52 Cloudy with Thunderstorms 51 10.6 51 10.6 100 100 NNW 9 15 29.85 1011 5 8 0.06 1.52
2:15 pm 14:15 Cloudy with Nearby Thunderstorms 51 10.6 50 10 96 96 N 10 17 29.88 1012 4 6 0.04 1.02
2:21 pm 14:21 Cloudy with Nearby Thunderstorms 51 10.6 50 10 96 96 NNW 15 24 29.90 1012 3 4 0.06 1.52
2:34 pm 14:34 Cloudy with Nearby Thunderstorms 50 10 50 10 100 100 N 13 20 29.90 1013 3 4 0.13 3.30
2:38 pm 14:38 Cloudy with Thunderstorms 50 10 49 9.4 96 96 N 14 22 29.89 1012 3 5 0.15 3.81
2:44 pm 14:44 Cloudy with Strong Thunderstorms 50 10 50 10 100 100 NNE 10 17 29.88 1012 3 4 0.16 4.06
2:52 pm 14:52 Cloudy with Strong Thunderstorms 50 10 50 10 100 100 ENE 16 26 29.83 1010 2 3 0.22 5.59
2:59 pm 14:59 Cloudy with Strong Thunderstorms 51 10.6 50 10 96 96 ENE 15 24 29.84 1010 2 3 0.07 1.78
3:03 pm 15:03 Cloudy with Thunderstorms 51 10.6 50 10 96 96 ENE 12 19 29.84 1010 3 5 0.10 2.54
3:11 pm 15:11 Cloudy with Nearby Thunderstorms 51 10.6 51 10.6 100 100 E 10 17 29.84 1010 6 10 0.11 2.79
3:52 pm 15:52 Cloudy with Nearby Thunderstorms 53 11.7 52 11.1 96 96 NNE 7 11 29.83 1010 8 13 0.14 3.56
4:00 pm 16:00 Cloudy with Nearby Thunderstorms 52 11.1 52 11.1 100 100 ENE 9 15 29.84 1010 10 16 0.00 0.00
4:23 pm 16:23 Cloudy with Light Rain 54 12.2 53 11.7 97 97 NE 8 13 29.81 1010 10 16 0.01 0.25
4:52 pm 16:52 Mostly Cloudy 57 13.9 54 12.2 90 90 ENE 7 11 29.80 1009 10 16 0.01 0.25
5:52 pm 17:52 Cloudy 57 13.9 54 12.2 90 90 ESE 7 11 29.79 1009 10 16 0.00 0.00
6:52 pm 18:52 Mostly Cloudy 57 13.9 54 12.2 90 90 ESE 9 15 29.81 1009 10 16 0.00 0.00
7:52 pm 19:52 Cloudy 57 13.9 53 11.7 87 87 ENE 6 9 29.82 1010 10 16 0.00 0.00
8:13 pm 20:13 Cloudy 56 13.3 53 11.7 90 90 E 6 9 29.83 1010 10 16 0.00 0.00
8:52 pm 20:52 Cloudy 56 13.3 53 11.7 90 90 ENE 8 13 29.81 1010 10 16 0.00 0.00
9:52 pm 21:52 Cloudy 56 13.3 53 11.7 90 90 E 7 11 29.83 1010 10 16 0.00 0.00
10:52 pm 22:52 Cloudy 55 12.8 52 11.1 90 90 E 10 17 29.83 1010 10 16 0.00 0.00
11:38 pm 23:38 Cloudy 55 12.8 53 11.7 93 93 ESE 12 19 29.83 1010 10 16 0.00 0.00
11:52 pm 23:52 Cloudy 55 12.8 53 11.7 93 93 ESE 10 17 29.81 1010 10 16 0.00 0.00

Powered by AerisWeather